Weather History for Dickinson, ND

Change the Weather History Date:

Monday, January 20, 2014

  Actual Average Record
Temperature  
Mean Temperature 17 °F 16 °F  
Max Temperature 33 °F 27 °F 54 °F (1908)
Min Temperature 0 °F 6 °F -33 °F (1954)
Degree Days  
Heating Degree Days 48 49  
Month to date heating degree days 929 980  
Since 1 July heating degree days 4584 4517  
Cooling Degree Days 0 0  
Month to date cooling degree days 0 0  
Year to date cooling degree days 0 0  
Moisture  
Dew Point 5 °F    
Average Humidity 71    
Maximum Humidity 79    
Minimum Humidity 63    
Precipitation  
Precipitation T in 0.01 in 0.09 in (1950)
Month to date precipitation 0.02 0.21  
Year to date precipitation 0.02 0.21  
Sea Level Pressure  
Sea Level Pressure 30.26 in    
Wind  
Wind Speed 18 mph (NW)    
Max Wind Speed 44 mph    
Max Gust Speed 57 mph    
Visibility 9 miles    
Events Snow    
T = Trace of Precipitation, MM = Missing Value Source: NWS Daily Summary

Daily Weather History Graph

Daily Weather History Graph

Search for Another Location

Airport:

Trip Planner

Search our weather history database for the weather conditions in past years. The results will help you decide how hot, cold, wet, or windy it might be!

Date:

Astronomy

Jan. 20, 2014 Rise Set
Actual Time 7:28 AM MST 4:36 PM MST
Civil Twilight 6:54 AM MST 5:10 PM MST
Nautical Twilight 6:17 AM MST 5:47 PM MST
Astronomical Twilight 5:41 AM MST 6:23 PM MST
Moon 9:34 PM MST (1/20) 9:10 AM MST (1/20)
Length of Visible Light 10h 15m
Length of Day
9h 08m
Waning Gibbous, 82% of the Moon is Illuminated
Jan 20
Waning Gibbous
Jan 23
Last Quarter
Jan 30
New
Feb 6
First Quarter
Feb 14
Full

Hourly Weather History & Observations

Time (MST) Temp. Windchill Dew Point Humidity Pressure Visibility Wind Dir Wind Speed Gust Speed Precip Events Conditions
12:56 AM 30.9 °F 18.4 °F 23.0 °F 72% 29.91 in 10.0 mi WNW 20.7 mph - N/A   Clear
1:56 AM 30.9 °F 17.5 °F 23.0 °F 72% 29.93 in 10.0 mi WNW 24.2 mph 31.1 mph N/A   Mostly Cloudy
2:56 AM 32.0 °F 18.4 °F 24.1 °F 73% 29.96 in 10.0 mi WNW 26.5 mph 38.0 mph N/A   Overcast
3:40 AM 32.0 °F 18.4 °F 24.1 °F 73% 29.89 in 9.0 mi WNW 26.5 mph 36.8 mph 0.00 in   Overcast
3:56 AM 33.1 °F 19.3 °F 24.1 °F 70% 29.96 in 10.0 mi WNW 28.8 mph 39.1 mph 0.00 in   Overcast
4:56 AM 32.0 °F 16.3 °F 21.9 °F 66% 29.97 in 10.0 mi NW 36.8 mph 57.5 mph 0.00 in   Overcast
5:34 AM 27.0 °F 9.4 °F 18.0 °F 69% 29.94 in 10.0 mi NW 36.8 mph 48.3 mph N/A   Overcast
5:46 AM 27.0 °F 9.4 °F 18.0 °F 69% 29.94 in 10.0 mi NW 36.8 mph 49.5 mph N/A   Overcast
5:56 AM 26.1 °F 9.1 °F 18.0 °F 71% 30.04 in 10.0 mi NW 32.2 mph 46.0 mph 0.00 in Snow Light Snow
6:56 AM 19.0 °F -2.1 °F 12.9 °F 77% 30.13 in 1.8 mi NNW 39.1 mph 52.9 mph 0.00 in Snow Light Snow
7:03 AM 19.0 °F -2.1 °F 10.0 °F 68% 30.04 in 3.0 mi NW 39.1 mph 52.9 mph 0.00 in Snow Light Snow
7:56 AM 12.0 °F -9.2 °F 3.9 °F 70% 30.25 in 9.0 mi NNW 28.8 mph 44.9 mph 0.00 in   Overcast
8:18 AM 8.1 °F -13.8 °F 1.0 °F 73% 30.17 in 2.0 mi NNW 26.5 mph 38.0 mph 0.00 in Snow Light Snow
8:28 AM 9.0 °F -13.7 °F 1.0 °F 70% 30.19 in 8.0 mi NNW 29.9 mph 36.8 mph 0.00 in   Overcast
8:36 AM 8.1 °F -13.4 °F -0.0 °F 70% 30.20 in 9.0 mi NNW 25.3 mph 36.8 mph 0.00 in   Overcast
8:56 AM 8.1 °F -14.9 °F -0.0 °F 70% 30.35 in 9.0 mi NNW 29.9 mph 35.7 mph 0.00 in   Overcast
9:17 AM 7.0 °F -15.3 °F -0.0 °F 73% 30.24 in 2.0 mi NNW 26.5 mph 35.7 mph 0.00 in Snow Light Snow
9:34 AM 7.0 °F -14.9 °F -0.9 °F 70% 30.27 in 7.0 mi North 25.3 mph 33.4 mph 0.00 in   Overcast
9:56 AM 7.0 °F -15.3 °F -0.9 °F 70% 30.40 in 6.0 mi North 26.5 mph 35.7 mph 0.00 in   Overcast
10:56 AM 7.0 °F -12.1 °F -0.9 °F 70% 30.45 in 6.0 mi North 18.4 mph - 0.00 in   Haze
11:56 AM 6.1 °F -11.6 °F -2.9 °F 67% 30.49 in 10.0 mi NNW 15.0 mph - 0.00 in   Overcast
12:51 PM 6.8 °F -12.4 °F -2.2 °F 67% 30.33 in 10.0 mi NNW 18.4 mph - N/A   Partly Cloudy
12:56 PM 7.0 °F -12.6 °F -2.0 °F 67% 30.47 in 10.0 mi NNW 19.6 mph - N/A   Partly Cloudy
1:56 PM 7.0 °F -9.1 °F -2.0 °F 67% 30.48 in 10.0 mi NW 12.7 mph - N/A   Partly Cloudy
2:56 PM 7.0 °F -8.3 °F -2.0 °F 67% 30.48 in 10.0 mi NW 11.5 mph - N/A   Partly Cloudy
3:56 PM 7.0 °F -8.3 °F -2.0 °F 67% 30.50 in 10.0 mi NNW 11.5 mph - N/A   Clear
4:56 PM 5.0 °F -4.1 °F -2.9 °F 70% 30.52 in 10.0 mi North 4.6 mph - N/A   Clear
5:56 PM 3.9 °F - -2.9 °F 73% 30.52 in 10.0 mi Calm Calm - N/A   Clear
6:56 PM 3.9 °F -3.4 °F -2.9 °F 73% 30.52 in 10.0 mi East 3.5 mph - N/A   Clear
7:56 PM 1.9 °F -9.2 °F -4.0 °F 76% 30.52 in 10.0 mi ESE 5.8 mph - N/A   Clear
8:56 PM 1.0 °F -11.7 °F -4.0 °F 79% 30.52 in 10.0 mi South 6.9 mph - N/A   Clear
9:56 PM 3.0 °F -13.3 °F -2.9 °F 76% 30.48 in 10.0 mi SSE 11.5 mph - N/A   Clear
10:56 PM 3.0 °F -13.3 °F -2.0 °F 80% 30.45 in 10.0 mi South 11.5 mph - N/A   Clear
11:56 PM 3.9 °F -14.3 °F -0.9 °F 80% 30.40 in 10.0 mi South 15.0 mph - N/A   Clear